sat.trackr.live / text

‹ back to catalog

STARLINK-35744

NORAD 66581 · 2025-268AA

PAYLOAD ACTIVE UNKNOWN

§ Identity

Operator
Country
US
Launch date
2025-11-21
Launch site
AFETR
Launch vehicle
Mass (kg)
RCS (m²)

Purposes: comms

External: N2YO · Heavens-Above · Gunter

§ Orbital elements

Epoch: 2026-09-20T21:06:23.452704Z

Period
94.27 min
Inclination
43.0007°
Eccentricity
0.0001237
Mean motion
15.27584573 rev/d
Perigee alt
482.2 km
Apogee alt
483.9 km
Semi-major
6,861.2 km
B*
3.7761e-4
RAAN
324.5446°
Arg perigee
269.7861°
Mean anomaly
90.2849°
Rev number
4,781

§ Raw data

STARLINK-357441 66581U 25268AA  26263.87943811  .00010145  00000+0  37761-3 0  99962 66581  43.0007 324.5446 0001237 269.7861  90.2849 15.27584573 47811

JSON: /api/v1/satellites/66581 · /tle

For live sub-satellite position, see the globe view (requires WebGL).

§ Visibility from observer

Set your observer location to see the next 7 days of passes ≥ 10°. The values pass through the URL so the page stays shareable.

No JS? Fill the form by hand. The geolocation button needs JavaScript.